Location: Allos
(44.2333°N, 6.6333°E)
Time: 23:54:00
(UTC+00:00)

DX 1 - Pass Details

Date: 17 May 2021
Orbit: 618 x 631 km, 98.5° (Epoch: 24 June)

Event Time Altitude Azimuth Distance (km) Brightness Sun altitude
Rises 19:24:16 0° 8° (N) 2,908 ? -5.2°
Reaches altitude 10° 19:26:30 10° 3° (N) 1,996 ? -5.5°
Maximum altitude 19:30:41 50° 289° (WNW) 791 ? -6.1°
Drops below altitude 10° 19:34:51 10° 214° (SW) 1,978 ? -6.7°
Sets 19:37:03 0° 209° (SSW) 2,879 ? -7.0°
